Regional Weather Roundup
Issued by NWS Spokane, WA

Home | Current Version | Previous Version | Text Only | Print | Product List | Glossary On
Versions: 1 2 3 4 5 6 7 8 9 10 11 12 13 14 15 16 17 18 19 20 21 22 23 24 25 26 27 28 29 30 31 32 33 34 35 36 37 38 39 40 41 42 43 44 45 46 47 48 49 50
000
NZUS01 KOTX 051010
RWROTX
EASTERN WASHINGTON/NORTHERN IDAHO ROUNDUP
NATIONAL WEATHER SERVICE, SPOKANE WA
300 AM PDT SUN JUL 05 2015

Note: "fair" indicated few or no clouds below 12,000 feet with no
significant weather and/or obstructions to visibility.

...NORTHEAST WASHINGTON AND NORTHERN IDAHO PANHANDLE...

CITY           SKY/WX    TMP DP  RH WIND       PRES   REMARKS
SPOKANE INTL   PTCLDY    73  26  17 N7        29.79R
SPOKANE DOWNTO CLEAR     74  35  24 VRB5      29.77R
COEUR D ALENE  CLEAR     70  39  32 NE8       29.78R
DEER PARK      PTCLDY    64  36  35 NW6       29.79R
SANDPOINT      MOCLDY    75  43  31 NE24G35   29.82R
BONNERS FERRY  CLOUDY    70  45  40 CALM      29.91R

...SOUTHEAST WASHINGTON AND SOUTHERN IDAHO PANHANDLE...

CITY           SKY/WX    TMP DP  RH WIND       PRES   REMARKS
WALLA WALLA    PTCLDY    82  46  28 S15       29.72R
PULLMAN/MOSCOW CLEAR     57  47  69 CALM      29.79R
LEWISTON       PTCLDY    73  44  35 S12       29.71R
LOWELL           N/A     64  55  72 CALM      29.78R

...COLUMBIA BASIN...

CITY           SKY/WX    TMP DP  RH WIND       PRES   REMARKS
EPHRATA        CLEAR     81  31  16 N22G29    29.75S
MOSES LAKE     CLEAR     75  34  22 N13       29.75R
TRI CITIES     CLEAR     76  47  35 N12       29.69R
HERMISTON      PTCLDY    77  49  37 SW6       29.71R
PENDLETON      MOCLDY    78  44  29 S7        29.76R

...EAST SLOPES CASCADES...

CITY           SKY/WX    TMP DP  RH WIND       PRES   REMARKS
THE DALLES     PTCLDY    79  54  41 NW6       29.72R
YAKIMA         CLEAR     75  36  24 N5        29.77R
ELLENSBURG     CLEAR     71  37  28 CALM      29.80R
WENATCHEE      CLEAR     78  40  25 NW9       29.79R
OMAK           CLEAR     74  34  23 N13       29.85R

...SOUTHERN BRITISH COLUMBIA...

CITY           SKY/WX    TMP DP  RH WIND       PRES   REMARKS
PENTICTON      PTCLDY    63  39  42 N6        29.91S
CRANBROOK      CLOUDY    64  39  39 E3        30.05R

...WESTERN MONTANA...

CITY           SKY/WX    TMP DP  RH WIND       PRES   REMARKS
MISSOULA       CLEAR     69  43  38 VRB5      29.88R

...NEIGHBORING CITIES...

CITY           SKY/WX    TMP DP  RH WIND       PRES   REMARKS
SEATTLE        CLEAR     72  49  44 NE5       29.81S
CALGARY        MOCLDY    52  43  71 NW7       30.18R



USA.gov is the U.S. government's official web portal to all federal, state and local government web resources and services.